TSC232 CYYZ-LPFR

Flight info

Callsign TSC232
Flight time 6h 39m
Altitude 39000
Route KEPTA3 BMPAH DCT HANKK DCT PONCT DCT AVONN DCT DOVEY/M082F390 DCT 42N060W 43N050W 4330N04000W 42N030W 40N020W DCT GUNTI/N0468F390 DCT ULVOT DCT IXOLI
Aircraft A332/H-SDE3GHIJ2J3J5M1RVWXY/LB2D1

Departure

Time 2026-05-05 12:18
Airport Toronto Pearson International Airport (CYYZ)

Arrival

Time 2026-05-05 18:57
Airport Faro - Gago Coutinho International Airport (LPFR)
Time Latitude Longitude Altitude Speed Heading
2026-05-05 11:37 43.68492 -79.62472 572 ft 0 kts 86°
2026-05-05 12:05 43.68492 -79.62492 574 ft 3 kts 86°
2026-05-05 12:05 43.68491 -79.62518 570 ft 3 kts 86°
2026-05-05 12:05 43.68489 -79.62544 568 ft 3 kts 86°
2026-05-05 12:06 43.68484 -79.62570 568 ft 3 kts 36°
2026-05-05 12:06 43.68467 -79.62580 575 ft 1 kts 355°
2026-05-05 12:06 43.68460 -79.62579 570 ft 3 kts 340°
2026-05-05 12:06 43.68444 -79.62564 575 ft 2 kts 290°
2026-05-05 12:07 43.68437 -79.62541 575 ft 3 kts 304°
2026-05-05 12:07 43.68426 -79.62522 575 ft 3 kts 307°
2026-05-05 12:07 43.68420 -79.62510 575 ft 2 kts 311°
2026-05-05 12:07 43.68417 -79.62505 575 ft 0 kts 317°
2026-05-05 12:11 43.68423 -79.62514 575 ft 4 kts 316°
2026-05-05 12:11 43.68449 -79.62548 575 ft 6 kts 316°
2026-05-05 12:11 43.68483 -79.62594 570 ft 8 kts 310°
2026-05-05 12:11 43.68496 -79.62639 575 ft 5 kts 275°
2026-05-05 12:12 43.68477 -79.62689 571 ft 8 kts 246°
2026-05-05 12:12 43.68492 -79.62762 568 ft 12 kts 307°
2026-05-05 12:12 43.68582 -79.62884 568 ft 14 kts 317°
2026-05-05 12:12 43.68632 -79.62949 572 ft 15 kts 317°
2026-05-05 12:13 43.68736 -79.63084 575 ft 16 kts 316°
2026-05-05 12:13 43.68791 -79.63156 570 ft 16 kts 316°
2026-05-05 12:13 43.68875 -79.63266 568 ft 17 kts 316°
2026-05-05 12:13 43.68957 -79.63371 574 ft 16 kts 316°
2026-05-05 12:14 43.69039 -79.63478 575 ft 17 kts 316°
2026-05-05 12:14 43.69120 -79.63522 575 ft 11 kts 23°
2026-05-05 12:14 43.69174 -79.63453 576 ft 11 kts 44°
2026-05-05 12:14 43.69248 -79.63423 574 ft 12 kts
2026-05-05 12:15 43.69318 -79.63409 575 ft 0 kts 20°
2026-05-05 12:15 43.69323 -79.63406 571 ft 1 kts 22°
2026-05-05 12:15 43.69334 -79.63398 569 ft 2 kts 26°
2026-05-05 12:15 43.69356 -79.63380 574 ft 4 kts 32°
2026-05-05 12:16 43.69381 -79.63356 571 ft 6 kts 34°
2026-05-05 12:16 43.69430 -79.63317 575 ft 13 kts 19°
2026-05-05 12:16 43.69492 -79.63376 576 ft 12 kts 267°
2026-05-05 12:16 43.69444 -79.63465 575 ft 0 kts 227°
2026-05-05 12:17 43.69443 -79.63466 575 ft 2 kts 227°
2026-05-05 12:17 43.69303 -79.63670 573 ft 59 kts 226°
2026-05-05 12:17 43.68885 -79.64276 577 ft 114 kts 226°
2026-05-05 12:18 43.68219 -79.65239 620 ft 159 kts 227°
2026-05-05 12:18 43.67475 -79.66387 1285 ft 159 kts 230°
2026-05-05 12:18 43.66777 -79.67565 2066 ft 162 kts 235°
2026-05-05 12:18 43.66066 -79.68903 2465 ft 183 kts 239°
2026-05-05 12:19 43.65285 -79.70435 2853 ft 208 kts 235°
2026-05-05 12:19 43.64035 -79.71652 3233 ft 240 kts 201°
2026-05-05 12:19 43.62292 -79.71528 3825 ft 268 kts 165°
2026-05-05 12:19 43.60724 -79.70011 4657 ft 280 kts 142°
2026-05-05 12:20 43.59349 -79.68141 5671 ft 276 kts 141°
2026-05-05 12:20 43.57987 -79.66262 6472 ft 280 kts 145°
2026-05-05 12:20 43.56462 -79.64565 7153 ft 284 kts 151°
2026-05-05 12:20 43.54834 -79.63001 7921 ft 288 kts 153°
2026-05-05 12:21 43.53158 -79.61442 8718 ft 294 kts 152°
2026-05-05 12:21 43.51640 -79.59459 9472 ft 312 kts 130°
2026-05-05 12:21 43.50856 -79.56653 10147 ft 329 kts 99°
2026-05-05 12:21 43.51024 -79.53422 10525 ft 350 kts 77°
2026-05-05 12:22 43.51692 -79.50094 10832 ft 370 kts 73°
2026-05-05 12:22 43.52443 -79.46610 11122 ft 389 kts 75°
2026-05-05 12:22 43.52816 -79.42851 11440 ft 404 kts 95°
2026-05-05 12:22 43.52216 -79.39072 11985 ft 406 kts 114°
2026-05-05 12:23 43.51156 -79.35455 12680 ft 409 kts 117°
2026-05-05 12:23 43.50019 -79.31830 13353 ft 414 kts 117°
2026-05-05 12:23 43.48872 -79.28167 13965 ft 418 kts 117°
2026-05-05 12:23 43.47722 -79.24467 14571 ft 423 kts 117°
2026-05-05 12:24 43.46565 -79.20717 15183 ft 427 kts 117°
2026-05-05 12:24 43.45404 -79.16946 15797 ft 430 kts 117°
2026-05-05 12:24 43.44226 -79.13120 16389 ft 434 kts 117°
2026-05-05 12:24 43.43051 -79.09321 16952 ft 438 kts 117°
2026-05-05 12:25 43.41849 -79.05445 17550 ft 442 kts 117°
2026-05-05 12:25 43.40639 -79.01546 18109 ft 446 kts 117°
2026-05-05 12:25 43.39416 -78.97612 18616 ft 449 kts 117°
2026-05-05 12:25 43.38185 -78.93655 19135 ft 451 kts 117°
2026-05-05 12:26 43.36944 -78.89676 19663 ft 454 kts 117°
2026-05-05 12:26 43.35697 -78.85680 20173 ft 456 kts 117°
2026-05-05 12:26 43.34442 -78.81664 20669 ft 459 kts 118°
2026-05-05 12:26 43.33177 -78.77625 21170 ft 461 kts 118°
2026-05-05 12:27 43.31903 -78.73563 21693 ft 464 kts 118°
2026-05-05 12:27 43.30624 -78.69488 22199 ft 467 kts 118°
2026-05-05 12:27 43.29333 -78.65386 22718 ft 468 kts 118°
2026-05-05 12:27 43.28040 -78.61278 23252 ft 469 kts 118°
2026-05-05 12:28 43.26740 -78.57159 23621 ft 472 kts 118°
2026-05-05 12:28 43.25429 -78.53012 23993 ft 475 kts 118°
2026-05-05 12:28 43.24108 -78.48840 24369 ft 478 kts 118°
2026-05-05 12:28 43.22781 -78.44654 24765 ft 480 kts 118°
2026-05-05 12:29 43.21445 -78.40448 25139 ft 483 kts 118°
2026-05-05 12:29 43.20101 -78.36223 25515 ft 485 kts 118°
2026-05-05 12:29 43.18746 -78.31970 25890 ft 488 kts 118°
2026-05-05 12:29 43.17386 -78.27699 26256 ft 490 kts 118°
2026-05-05 12:30 43.16019 -78.23412 26624 ft 493 kts 118°
2026-05-05 12:30 43.14643 -78.19090 26984 ft 495 kts 118°
2026-05-05 12:30 43.13262 -78.14752 27348 ft 498 kts 118°
2026-05-05 12:30 43.11890 -78.10443 27701 ft 501 kts 118°
2026-05-05 12:31 43.10491 -78.06049 28061 ft 503 kts 118°
2026-05-05 12:31 43.09091 -78.01647 28407 ft 505 kts 118°
2026-05-05 12:31 43.07681 -77.97220 28753 ft 508 kts 118°
2026-05-05 12:31 43.06266 -77.92773 29067 ft 511 kts 118°
2026-05-05 12:32 43.04838 -77.88294 29362 ft 513 kts 118°
2026-05-05 12:32 43.03427 -77.83868 29766 ft 514 kts 118°
2026-05-05 12:32 43.02002 -77.79399 30235 ft 513 kts 118°
2026-05-05 12:32 43.00580 -77.74932 30595 ft 513 kts 118°
2026-05-05 12:33 42.99155 -77.70465 30934 ft 513 kts 118°
2026-05-05 12:33 42.97729 -77.65994 31315 ft 513 kts 118°
2026-05-05 12:33 42.96301 -77.61521 31671 ft 513 kts 118°
2026-05-05 12:33 42.94870 -77.57055 31990 ft 513 kts 117°
2026-05-05 12:34 42.93406 -77.52606 32309 ft 514 kts 118°
2026-05-05 12:34 42.91929 -77.48161 32652 ft 514 kts 118°
2026-05-05 12:34 42.90449 -77.43719 32984 ft 515 kts 118°
2026-05-05 12:34 42.88963 -77.39255 33310 ft 515 kts 118°
2026-05-05 12:35 42.87481 -77.34809 33642 ft 515 kts 118°
2026-05-05 12:35 42.85996 -77.30361 33952 ft 515 kts 118°
2026-05-05 12:35 42.84516 -77.25921 34306 ft 514 kts 118°
2026-05-05 12:35 42.83045 -77.21499 34688 ft 511 kts 118°
2026-05-05 12:36 42.81584 -77.17098 35095 ft 508 kts 118°
2026-05-05 12:36 42.80137 -77.12730 35450 ft 506 kts 118°
2026-05-05 12:36 42.78695 -77.08363 35758 ft 505 kts 118°
2026-05-05 12:36 42.77276 -77.04051 36052 ft 504 kts 118°
2026-05-05 12:37 42.75827 -76.99639 36347 ft 503 kts 118°
2026-05-05 12:37 42.74419 -76.95342 36635 ft 502 kts 118°
2026-05-05 12:37 42.73001 -76.91000 36927 ft 501 kts 118°
2026-05-05 12:37 42.71589 -76.86663 37195 ft 500 kts 118°
2026-05-05 12:38 42.70176 -76.82335 37466 ft 499 kts 117°
2026-05-05 12:38 42.68762 -76.78030 37752 ft 499 kts 118°
2026-05-05 12:38 42.67350 -76.73735 38025 ft 498 kts 117°
2026-05-05 12:38 42.65938 -76.69426 38313 ft 497 kts 117°
2026-05-05 12:39 42.64555 -76.65197 38509 ft 496 kts 117°
2026-05-05 12:39 42.63148 -76.60921 38727 ft 496 kts 117°
2026-05-05 12:39 42.60318 -76.52379 38789 ft 495 kts 117°
2026-05-05 12:40 42.57495 -76.43893 38803 ft 494 kts 117°
2026-05-05 12:40 42.54652 -76.35392 38804 ft 494 kts 117°
2026-05-05 12:41 42.51814 -76.26903 38801 ft 494 kts 117°
2026-05-05 12:41 42.48982 -76.18416 38801 ft 494 kts 117°
2026-05-05 12:42 42.46144 -76.09921 38794 ft 494 kts 117°
2026-05-05 12:42 42.43313 -76.01503 38816 ft 493 kts 117°
2026-05-05 12:43 42.40473 -75.93043 38801 ft 493 kts 117°
2026-05-05 12:43 42.37642 -75.84598 38818 ft 493 kts 117°
2026-05-05 12:44 42.34812 -75.76146 38816 ft 493 kts 117°
2026-05-05 12:44 42.31973 -75.67723 38818 ft 490 kts 117°
2026-05-05 12:45 42.29792 -75.59004 38831 ft 492 kts 104°
2026-05-05 12:45 42.28436 -75.49951 38824 ft 493 kts 102°
2026-05-05 12:46 42.27263 -75.40904 38831 ft 493 kts 101°
2026-05-05 12:46 42.26095 -75.31806 38841 ft 491 kts 101°
2026-05-05 12:47 42.24903 -75.22743 38842 ft 490 kts 101°
2026-05-05 12:47 42.23692 -75.13700 38850 ft 490 kts 101°
2026-05-05 12:48 42.22469 -75.04656 38848 ft 490 kts 101°
2026-05-05 12:48 42.21238 -74.95601 38854 ft 490 kts 101°
2026-05-05 12:49 42.20002 -74.86554 38854 ft 490 kts 101°
2026-05-05 12:49 42.18759 -74.77511 38859 ft 490 kts 102°
2026-05-05 12:50 42.17507 -74.68461 38859 ft 490 kts 102°
2026-05-05 12:50 42.16249 -74.59423 38862 ft 490 kts 102°
2026-05-05 12:51 42.14986 -74.50402 38862 ft 490 kts 102°
2026-05-05 12:51 42.13722 -74.41428 38864 ft 490 kts 102°
2026-05-05 12:52 42.12444 -74.32404 38862 ft 491 kts 102°
2026-05-05 12:52 42.11157 -74.23373 38862 ft 491 kts 102°
2026-05-05 12:53 42.09862 -74.14337 38860 ft 491 kts 102°
2026-05-05 12:53 42.08560 -74.05307 38854 ft 491 kts 102°
2026-05-05 12:54 42.06595 -73.91778 38859 ft 490 kts 102°
2026-05-05 12:55 42.05278 -73.82779 38860 ft 489 kts 102°
2026-05-05 12:55 42.03957 -73.73800 38854 ft 489 kts 102°
2026-05-05 12:56 42.02851 -73.66322 38853 ft 489 kts 102°
2026-05-05 12:56 42.01299 -73.55895 38851 ft 488 kts 102°
2026-05-05 12:57 42.00178 -73.48394 38863 ft 488 kts 102°
2026-05-05 12:57 41.98834 -73.39460 38863 ft 488 kts 102°
2026-05-05 12:58 41.97483 -73.30526 38879 ft 488 kts 102°
2026-05-05 12:58 41.96123 -73.21587 38890 ft 488 kts 102°
2026-05-05 12:59 41.94758 -73.12653 38891 ft 488 kts 102°
2026-05-05 12:59 41.93385 -73.03725 38903 ft 488 kts 102°
2026-05-05 13:00 41.91321 -72.90388 38910 ft 488 kts 102°
2026-05-05 13:01 41.88530 -72.72523 38916 ft 489 kts 102°
2026-05-05 13:01 41.87125 -72.63601 38916 ft 489 kts 102°
2026-05-05 13:02 41.85713 -72.54688 38914 ft 489 kts 102°
2026-05-05 13:02 41.84293 -72.45771 38924 ft 489 kts 102°
2026-05-05 13:03 41.82866 -72.36853 38927 ft 489 kts 102°
2026-05-05 13:03 41.81433 -72.27947 38929 ft 489 kts 102°
2026-05-05 13:04 41.79999 -72.19077 38940 ft 489 kts 103°
2026-05-05 13:04 41.78550 -72.10170 38944 ft 489 kts 103°
2026-05-05 13:05 41.77095 -72.01264 38944 ft 489 kts 103°
2026-05-05 13:05 41.75633 -71.92363 38947 ft 489 kts 103°
2026-05-05 13:06 41.74163 -71.83466 38949 ft 489 kts 103°
2026-05-05 13:06 41.72686 -71.74567 38957 ft 489 kts 103°
2026-05-05 13:07 41.71204 -71.65683 38959 ft 489 kts 103°
2026-05-05 13:07 41.69714 -71.56796 38962 ft 489 kts 103°
2026-05-05 13:08 41.68220 -71.47926 38963 ft 488 kts 103°
2026-05-05 13:08 41.66807 -71.39082 37974 ft 497 kts 99°
2026-05-05 13:09 41.66131 -71.34567 37632 ft 490 kts 103°
2026-05-05 13:09 41.65359 -71.30121 37833 ft 482 kts 104°
2026-05-05 13:09 41.63776 -71.21401 38026 ft 488 kts 103°
2026-05-05 13:10 41.63111 -71.16943 38208 ft 490 kts 100°
2026-05-05 13:10 41.62582 -71.12444 38421 ft 490 kts 98°
2026-05-05 13:10 41.62122 -71.07932 38632 ft 490 kts 97°
2026-05-05 13:10 41.61683 -71.03411 38794 ft 491 kts 97°
2026-05-05 13:11 41.61242 -70.98887 38938 ft 491 kts 98°
2026-05-05 13:11 41.60789 -70.94370 38961 ft 490 kts 98°
2026-05-05 13:11 41.59851 -70.85379 38956 ft 487 kts 98°
2026-05-05 13:12 41.58888 -70.76443 38955 ft 486 kts 98°
2026-05-05 13:12 41.57914 -70.67512 38986 ft 486 kts 98°
2026-05-05 13:13 41.56933 -70.58567 38990 ft 486 kts 98°
2026-05-05 13:13 41.55947 -70.49636 38986 ft 486 kts 98°
2026-05-05 13:14 41.54956 -70.40719 38997 ft 485 kts 98°
2026-05-05 13:14 41.53960 -70.31813 38985 ft 485 kts 99°
2026-05-05 13:15 41.52956 -70.22910 38974 ft 485 kts 99°
2026-05-05 13:15 41.51944 -70.13999 38975 ft 485 kts 99°
2026-05-05 13:16 41.50934 -70.05167 39000 ft 485 kts 99°
2026-05-05 13:16 41.49909 -69.96263 39013 ft 485 kts 99°
2026-05-05 13:17 41.48878 -69.87371 39011 ft 485 kts 99°
2026-05-05 13:17 41.47838 -69.78469 39009 ft 485 kts 99°
2026-05-05 13:18 41.46793 -69.69576 39021 ft 486 kts 99°
2026-05-05 13:18 41.45740 -69.60681 39018 ft 486 kts 99°
2026-05-05 13:19 41.44681 -69.51799 39015 ft 486 kts 99°
2026-05-05 13:19 41.43613 -69.42896 39033 ft 486 kts 99°
2026-05-05 13:20 41.42539 -69.34009 39036 ft 486 kts 99°
2026-05-05 13:20 41.41457 -69.25114 39042 ft 486 kts 100°
2026-05-05 13:21 41.40375 -69.16270 39041 ft 486 kts 100°
2026-05-05 13:21 41.39278 -69.07371 39050 ft 487 kts 100°
2026-05-05 13:22 41.38174 -68.98469 39057 ft 487 kts 100°
2026-05-05 13:22 41.37064 -68.89580 39050 ft 487 kts 100°
2026-05-05 13:23 41.35945 -68.80674 39052 ft 487 kts 100°
2026-05-05 13:23 41.34819 -68.71778 39065 ft 487 kts 100°
2026-05-05 13:24 41.33687 -68.62882 39059 ft 487 kts 100°
2026-05-05 13:24 41.32548 -68.53990 39065 ft 487 kts 100°
2026-05-05 13:25 41.31401 -68.45099 39074 ft 488 kts 101°
2026-05-05 13:25 41.30247 -68.36202 39069 ft 488 kts 101°
2026-05-05 13:26 41.29085 -68.27307 39076 ft 488 kts 101°
2026-05-05 13:26 41.27917 -68.18416 39073 ft 488 kts 101°
2026-05-05 13:27 41.26749 -68.09580 39080 ft 489 kts 101°
2026-05-05 13:27 41.25565 -68.00678 39080 ft 489 kts 101°
2026-05-05 13:28 41.24373 -67.91768 39087 ft 489 kts 101°
2026-05-05 13:28 41.23175 -67.82873 39089 ft 489 kts 101°
2026-05-05 13:29 41.21971 -67.73982 39097 ft 489 kts 101°
2026-05-05 13:29 41.20759 -67.65093 39096 ft 489 kts 101°
2026-05-05 13:30 41.19542 -67.56216 39099 ft 488 kts 101°
2026-05-05 13:30 41.18320 -67.47354 39104 ft 489 kts 101°
2026-05-05 13:31 41.17088 -67.38475 39106 ft 489 kts 101°
2026-05-05 13:31 41.15849 -67.29598 39107 ft 489 kts 101°
2026-05-05 13:32 41.14602 -67.20716 39104 ft 489 kts 101°
2026-05-05 13:32 41.13349 -67.11841 39119 ft 491 kts 102°
2026-05-05 13:33 41.12222 -67.02903 39117 ft 491 kts 95°
2026-05-05 13:33 41.12655 -66.93888 39128 ft 493 kts 80°
2026-05-05 13:34 41.13944 -66.84967 39123 ft 497 kts 77°
2026-05-05 13:34 41.15401 -66.75970 39130 ft 499 kts 77°
2026-05-05 13:35 41.16848 -66.66954 39127 ft 499 kts 77°
2026-05-05 13:35 41.18261 -66.57928 39148 ft 499 kts 78°
2026-05-05 13:36 41.19653 -66.48897 39137 ft 499 kts 78°
2026-05-05 13:36 41.21037 -66.39858 39135 ft 500 kts 78°
2026-05-05 13:37 41.22415 -66.30813 39139 ft 500 kts 78°
2026-05-05 13:37 41.23787 -66.21765 39132 ft 500 kts 78°
2026-05-05 13:38 41.25157 -66.12680 39139 ft 502 kts 78°
2026-05-05 13:38 41.26523 -66.03567 39156 ft 503 kts 78°
2026-05-05 13:39 41.27872 -65.94519 39144 ft 500 kts 78°
2026-05-05 13:39 41.29225 -65.85388 39156 ft 502 kts 78°
2026-05-05 13:40 41.30562 -65.76319 39149 ft 503 kts 78°
2026-05-05 13:40 41.31900 -65.67188 39152 ft 503 kts 78°
2026-05-05 13:41 41.33230 -65.58061 39146 ft 503 kts 78°
2026-05-05 13:41 41.34559 -65.48882 39164 ft 506 kts 78°
2026-05-05 13:42 41.35880 -65.39705 39156 ft 504 kts 78°
2026-05-05 13:42 41.37190 -65.30552 39164 ft 503 kts 78°
2026-05-05 13:43 41.38275 -65.22931 39170 ft 505 kts 78°
2026-05-05 13:43 41.39582 -65.13704 39166 ft 507 kts 79°
2026-05-05 13:44 41.40879 -65.04481 39169 ft 507 kts 79°
2026-05-05 13:44 41.42172 -64.95236 39168 ft 507 kts 79°
2026-05-05 13:45 41.43456 -64.86001 39169 ft 507 kts 79°
2026-05-05 13:45 41.44733 -64.76754 39164 ft 507 kts 79°
2026-05-05 13:46 41.46004 -64.67502 39170 ft 507 kts 79°
2026-05-05 13:46 41.47268 -64.58236 39173 ft 507 kts 79°
2026-05-05 13:47 41.48523 -64.48976 39175 ft 507 kts 79°
2026-05-05 13:47 41.49771 -64.39718 39179 ft 506 kts 79°
2026-05-05 13:48 41.51006 -64.30492 39171 ft 506 kts 79°
2026-05-05 13:48 41.52238 -64.21229 39183 ft 508 kts 79°
2026-05-05 13:49 41.53464 -64.11950 39174 ft 508 kts 79°
2026-05-05 13:49 41.54677 -64.02720 39176 ft 508 kts 79°
2026-05-05 13:50 41.55891 -63.93413 39193 ft 510 kts 79°
2026-05-05 13:50 41.57097 -63.84108 39182 ft 508 kts 79°
2026-05-05 13:51 41.58295 -63.74798 39178 ft 508 kts 79°
2026-05-05 13:51 41.59486 -63.65487 39184 ft 509 kts 80°
2026-05-05 13:52 41.60673 -63.56148 39181 ft 510 kts 80°
2026-05-05 13:52 41.61852 -63.46803 39190 ft 510 kts 80°
2026-05-05 13:53 41.63026 -63.37442 39185 ft 511 kts 80°
2026-05-05 13:53 41.64192 -63.28069 39188 ft 512 kts 80°
2026-05-05 13:54 41.65354 -63.18673 39189 ft 512 kts 80°
2026-05-05 13:54 41.66501 -63.09327 39191 ft 512 kts 80°
2026-05-05 13:55 41.67649 -62.99913 39198 ft 513 kts 81°
2026-05-05 13:55 41.68790 -62.90487 39195 ft 513 kts 80°
2026-05-05 13:56 41.69923 -62.81061 39197 ft 512 kts 81°
2026-05-05 13:56 41.71046 -62.71651 39192 ft 513 kts 81°
2026-05-05 13:57 41.72165 -62.62202 39200 ft 514 kts 81°
2026-05-05 13:57 41.73275 -62.52763 39198 ft 514 kts 81°
2026-05-05 13:58 41.74380 -62.43299 39197 ft 514 kts 81°
2026-05-05 13:58 41.75476 -62.33845 39194 ft 513 kts 81°
2026-05-05 13:59 41.77099 -62.19708 39204 ft 515 kts 81°
2026-05-05 14:00 41.78715 -62.05473 39208 ft 515 kts 81°
2026-05-05 14:00 41.79783 -61.95976 39211 ft 515 kts 82°
2026-05-05 14:01 41.80843 -61.86475 39203 ft 515 kts 82°
2026-05-05 14:01 41.81897 -61.76964 39204 ft 516 kts 82°
2026-05-05 14:02 41.82943 -61.67443 39210 ft 516 kts 82°
2026-05-05 14:02 41.83981 -61.57919 39205 ft 516 kts 82°
2026-05-05 14:03 41.85013 -61.48380 39212 ft 516 kts 82°
2026-05-05 14:03 41.86030 -61.38898 39225 ft 517 kts 83°
2026-05-05 14:04 41.87047 -61.29342 39207 ft 518 kts 83°
2026-05-05 14:04 41.88057 -61.19772 39209 ft 518 kts 83°
2026-05-05 14:05 41.89059 -61.10207 39219 ft 517 kts 83°
2026-05-05 14:05 41.90053 -61.00632 39215 ft 517 kts 83°
2026-05-05 14:06 41.91038 -60.91065 39212 ft 517 kts 83°
2026-05-05 14:06 41.92016 -60.81493 39213 ft 517 kts 83°
2026-05-05 14:07 41.92985 -60.71925 39224 ft 517 kts 83°
2026-05-05 14:07 41.93945 -60.62358 39219 ft 517 kts 83°
2026-05-05 14:08 41.94891 -60.52851 39217 ft 517 kts 83°
2026-05-05 14:08 41.95839 -60.43247 39227 ft 519 kts 84°
2026-05-05 14:09 41.96780 -60.33626 39238 ft 519 kts 83°
2026-05-05 14:09 41.97713 -60.24007 39227 ft 519 kts 84°
2026-05-05 14:10 41.98637 -60.14392 39231 ft 519 kts 84°
2026-05-05 14:10 41.99554 -60.04762 39230 ft 521 kts 84°
2026-05-05 14:11 42.00606 -59.95112 39231 ft 523 kts 81°
2026-05-05 14:11 42.02004 -59.85518 39254 ft 523 kts 79°
2026-05-05 14:12 42.03450 -59.75935 39229 ft 522 kts 80°
2026-05-05 14:12 42.04851 -59.66362 39236 ft 522 kts 80°
2026-05-05 14:13 42.06223 -59.56736 39235 ft 526 kts 81°
2026-05-05 14:13 42.07587 -59.47055 39238 ft 528 kts 81°
2026-05-05 14:14 42.08939 -59.37402 39247 ft 527 kts 81°
2026-05-05 14:14 42.10290 -59.27702 39241 ft 527 kts 81°
2026-05-05 14:15 42.11633 -59.18005 39225 ft 527 kts 81°
2026-05-05 14:15 42.12971 -59.08273 39247 ft 531 kts 81°
2026-05-05 14:16 42.14309 -58.98477 39249 ft 532 kts 81°
2026-05-05 14:16 42.15641 -58.88667 39248 ft 532 kts 81°
2026-05-05 14:17 42.16965 -58.78851 39242 ft 532 kts 81°
2026-05-05 14:17 42.18280 -58.69031 39234 ft 532 kts 82°
2026-05-05 14:18 42.19588 -58.59195 39251 ft 533 kts 82°
2026-05-05 14:18 42.20890 -58.49338 39258 ft 534 kts 82°
2026-05-05 14:19 42.22184 -58.39474 39258 ft 534 kts 82°
2026-05-05 14:19 42.23470 -58.29606 39255 ft 534 kts 82°
2026-05-05 14:20 42.24746 -58.19735 39241 ft 534 kts 82°
2026-05-05 14:20 42.26017 -58.09839 39256 ft 536 kts 82°
2026-05-05 14:21 42.27283 -57.99912 39265 ft 537 kts 82°
2026-05-05 14:21 42.28541 -57.89979 39260 ft 537 kts 82°
2026-05-05 14:22 42.29783 -57.80102 39262 ft 536 kts 82°
2026-05-05 14:22 42.31023 -57.70168 39250 ft 536 kts 82°
2026-05-05 14:23 42.32258 -57.60195 39263 ft 538 kts 82°
2026-05-05 14:23 42.33485 -57.50219 39271 ft 539 kts 82°
2026-05-05 14:24 42.34705 -57.40220 39266 ft 539 kts 82°
2026-05-05 14:24 42.35919 -57.30202 39267 ft 539 kts 82°
2026-05-05 14:25 42.37123 -57.20192 39261 ft 539 kts 82°
2026-05-05 14:25 42.38318 -57.10170 39274 ft 540 kts 82°
2026-05-05 14:26 42.39505 -57.00147 39272 ft 540 kts 82°
2026-05-05 14:26 42.40679 -56.90156 39269 ft 541 kts 83°
2026-05-05 14:27 42.41850 -56.80103 39269 ft 541 kts 83°
2026-05-05 14:27 42.43012 -56.70059 39270 ft 541 kts 83°
2026-05-05 14:28 42.44166 -56.59996 39283 ft 541 kts 83°
2026-05-05 14:28 42.45313 -56.49918 39269 ft 542 kts 83°
2026-05-05 14:29 42.46454 -56.39818 39274 ft 542 kts 83°
2026-05-05 14:29 42.47582 -56.29740 39274 ft 542 kts 83°
2026-05-05 14:30 42.48703 -56.19647 39272 ft 542 kts 83°
2026-05-05 14:30 42.49629 -56.11250 39276 ft 542 kts 83°
2026-05-05 14:31 42.50736 -56.01127 39276 ft 543 kts 83°
2026-05-05 14:31 42.51833 -55.91009 39276 ft 543 kts 83°
2026-05-05 14:32 42.52922 -55.80888 39272 ft 543 kts 83°
2026-05-05 14:32 42.54002 -55.70761 39268 ft 543 kts 84°
2026-05-05 14:33 42.55073 -55.60628 39278 ft 543 kts 84°
2026-05-05 14:33 42.56136 -55.50478 39280 ft 544 kts 84°
2026-05-05 14:34 42.57190 -55.40329 39274 ft 544 kts 84°
2026-05-05 14:34 42.58238 -55.30154 39282 ft 544 kts 84°
2026-05-05 14:35 42.59275 -55.19992 39287 ft 544 kts 84°
2026-05-05 14:35 42.60298 -55.09877 39280 ft 544 kts 84°
2026-05-05 14:36 42.61317 -54.99705 39279 ft 544 kts 84°
2026-05-05 14:36 42.62329 -54.89515 39282 ft 544 kts 84°
2026-05-05 14:37 42.63331 -54.79324 39279 ft 544 kts 85°
2026-05-05 14:37 42.64325 -54.69125 39288 ft 546 kts 85°
2026-05-05 14:38 42.65313 -54.58883 39281 ft 548 kts 85°
2026-05-05 14:38 42.66295 -54.48621 39283 ft 548 kts 85°
2026-05-05 14:39 42.67267 -54.38355 39286 ft 548 kts 85°
2026-05-05 14:39 42.68230 -54.28088 39287 ft 548 kts 85°
2026-05-05 14:40 42.69184 -54.17805 39284 ft 550 kts 85°
2026-05-05 14:40 42.70134 -54.07464 39287 ft 552 kts 85°
2026-05-05 14:41 42.71078 -53.97093 39284 ft 552 kts 86°
2026-05-05 14:41 42.72012 -53.86733 39289 ft 552 kts 86°
2026-05-05 14:42 42.72931 -53.76419 39291 ft 552 kts 86°
2026-05-05 14:42 42.73847 -53.66024 39295 ft 555 kts 86°
2026-05-05 14:43 42.74758 -53.55589 39297 ft 556 kts 86°
2026-05-05 14:43 42.75660 -53.45139 39301 ft 556 kts 86°
2026-05-05 14:44 42.76554 -53.34686 39303 ft 556 kts 86°
2026-05-05 14:44 42.77438 -53.24218 39276 ft 556 kts 87°
2026-05-05 14:45 42.78313 -53.13735 39296 ft 559 kts 87°
2026-05-05 14:45 42.79182 -53.03209 39294 ft 560 kts 87°
2026-05-05 14:46 42.80038 -52.92735 39300 ft 560 kts 87°
2026-05-05 14:46 42.80889 -52.82201 39298 ft 560 kts 87°
2026-05-05 14:47 42.81729 -52.71675 39293 ft 560 kts 87°
2026-05-05 14:47 42.82562 -52.61097 39303 ft 562 kts 87°
2026-05-05 14:48 42.83388 -52.50494 39309 ft 562 kts 88°
2026-05-05 14:48 42.84203 -52.39910 39309 ft 562 kts 88°
2026-05-05 14:49 42.85009 -52.29313 39310 ft 562 kts 88°
2026-05-05 14:49 42.85805 -52.18703 39305 ft 563 kts 88°
2026-05-05 14:50 42.86594 -52.08059 39311 ft 565 kts 88°
2026-05-05 14:50 42.87375 -51.97388 39311 ft 565 kts 88°
2026-05-05 14:51 42.88141 -51.86798 39313 ft 565 kts 88°
2026-05-05 14:51 42.88901 -51.76133 39315 ft 565 kts 88°
2026-05-05 14:52 42.89652 -51.65459 39316 ft 566 kts 88°
2026-05-05 14:52 42.90395 -51.54750 39314 ft 568 kts 88°
2026-05-05 14:53 42.91129 -51.44027 39317 ft 568 kts 88°
2026-05-05 14:53 42.91854 -51.33303 39326 ft 568 kts 88°
2026-05-05 14:54 42.92569 -51.22566 39317 ft 567 kts 89°
2026-05-05 14:54 42.93271 -51.11854 39319 ft 567 kts 89°
2026-05-05 14:55 42.93966 -51.01117 39319 ft 567 kts 89°
2026-05-05 14:55 42.94649 -50.90392 39325 ft 567 kts 89°
2026-05-05 14:56 42.95322 -50.79668 39326 ft 567 kts 89°
2026-05-05 14:56 42.95985 -50.68946 39316 ft 567 kts 89°
2026-05-05 14:57 42.96639 -50.58201 39331 ft 569 kts 89°
2026-05-05 14:57 42.97284 -50.47432 39330 ft 569 kts 89°
2026-05-05 14:58 42.97916 -50.36719 39345 ft 569 kts 89°
2026-05-05 14:58 42.98542 -50.25950 39333 ft 568 kts 89°
2026-05-05 14:59 42.99156 -50.15190 39318 ft 569 kts 90°
2026-05-05 14:59 42.99762 -50.04363 39333 ft 573 kts 90°
2026-05-05 15:00 43.00350 -49.95333 39334 ft 575 kts 87°
2026-05-05 15:00 43.01538 -49.82660 39340 ft 575 kts 85°
2026-05-05 15:01 43.02603 -49.71828 39338 ft 575 kts 86°
2026-05-05 15:01 43.03619 -49.60996 39330 ft 575 kts 86°
2026-05-05 15:02 43.04605 -49.50093 39341 ft 578 kts 86°
2026-05-05 15:02 43.05578 -49.39163 39349 ft 578 kts 86°
2026-05-05 15:03 43.06540 -49.28265 39341 ft 577 kts 86°
2026-05-05 15:03 43.07487 -49.17423 39344 ft 577 kts 86°
2026-05-05 15:04 43.08430 -49.06516 39341 ft 578 kts 86°
2026-05-05 15:04 43.09366 -48.95536 39347 ft 582 kts 86°
2026-05-05 15:05 43.10756 -48.79036 39346 ft 582 kts 87°
2026-05-05 15:06 43.11671 -48.68025 39346 ft 582 kts 87°
2026-05-05 15:06 43.12574 -48.57012 39347 ft 582 kts 87°
2026-05-05 15:07 43.13466 -48.45986 39350 ft 584 kts 86°
2026-05-05 15:07 43.14351 -48.34916 39346 ft 585 kts 87°
2026-05-05 15:08 43.15228 -48.23836 39349 ft 585 kts 87°
2026-05-05 15:08 43.16088 -48.12813 39349 ft 585 kts 87°
2026-05-05 15:09 43.16943 -48.01729 39357 ft 585 kts 87°
2026-05-05 15:09 43.17785 -47.90659 39350 ft 585 kts 86°
2026-05-05 15:10 43.18617 -47.79570 39355 ft 585 kts 86°
2026-05-05 15:10 43.19439 -47.68481 39357 ft 586 kts 86°
2026-05-05 15:11 43.20251 -47.57375 39360 ft 585 kts 86°
2026-05-05 15:11 43.21051 -47.46282 39357 ft 584 kts 86°
2026-05-05 15:12 43.21840 -47.35203 39355 ft 584 kts 86°
2026-05-05 15:12 43.22616 -47.24134 39358 ft 583 kts 86°
2026-05-05 15:13 43.23381 -47.13067 39360 ft 583 kts 86°
2026-05-05 15:13 43.24136 -47.02011 39358 ft 582 kts 86°
2026-05-05 15:14 43.24878 -46.90966 39357 ft 581 kts 86°
2026-05-05 15:14 43.25610 -46.79914 39357 ft 580 kts 87°
2026-05-05 15:15 43.26330 -46.68889 39360 ft 579 kts 87°
2026-05-05 15:15 43.27031 -46.57980 39359 ft 577 kts 87°
2026-05-05 15:16 43.27725 -46.47030 39354 ft 576 kts 87°
2026-05-05 15:16 43.28407 -46.36083 39353 ft 576 kts 87°
2026-05-05 15:17 43.28971 -46.26906 39323 ft 575 kts 87°
2026-05-05 15:17 43.29634 -46.15966 39352 ft 574 kts 87°
2026-05-05 15:18 43.30281 -46.05131 39351 ft 572 kts 88°
2026-05-05 15:18 43.30918 -45.94263 39349 ft 572 kts 88°
2026-05-05 15:19 43.31545 -45.83378 39349 ft 572 kts 88°
2026-05-05 15:19 43.32164 -45.72479 39351 ft 571 kts 88°
2026-05-05 15:20 43.32770 -45.61617 39351 ft 570 kts 88°
2026-05-05 15:20 43.33365 -45.50761 39349 ft 569 kts 88°
2026-05-05 15:21 43.33949 -45.39916 39347 ft 569 kts 88°
2026-05-05 15:21 43.34523 -45.29067 39357 ft 569 kts 88°
2026-05-05 15:22 43.35086 -45.18234 39347 ft 567 kts 88°
2026-05-05 15:22 43.35638 -45.07426 39349 ft 567 kts 88°
2026-05-05 15:23 43.36176 -44.96661 39348 ft 567 kts 88°
2026-05-05 15:23 43.36707 -44.85850 39348 ft 568 kts 89°
2026-05-05 15:24 43.37229 -44.75024 39348 ft 566 kts 89°
2026-05-05 15:24 43.37739 -44.64237 39350 ft 565 kts 89°
2026-05-05 15:25 43.38237 -44.53459 39344 ft 565 kts 89°
2026-05-05 15:25 43.38725 -44.42684 39355 ft 565 kts 89°
2026-05-05 15:26 43.39203 -44.31910 39346 ft 564 kts 89°
2026-05-05 15:26 43.39671 -44.21124 39354 ft 564 kts 89°
2026-05-05 15:27 43.40129 -44.10359 39344 ft 564 kts 89°
2026-05-05 15:27 43.40576 -43.99581 39335 ft 564 kts 90°
2026-05-05 15:28 43.41014 -43.88812 39346 ft 563 kts 90°
2026-05-05 15:28 43.41437 -43.78132 39346 ft 563 kts 90°
2026-05-05 15:29 43.41853 -43.67388 39347 ft 562 kts 90°
2026-05-05 15:29 43.42259 -43.56644 39346 ft 562 kts 90°
2026-05-05 15:30 43.42654 -43.45899 39311 ft 562 kts 90°
2026-05-05 15:30 43.43040 -43.35148 39342 ft 562 kts 90°
2026-05-05 15:31 43.43415 -43.24417 39342 ft 561 kts 90°
2026-05-05 15:31 43.43780 -43.13687 39346 ft 561 kts 90°
2026-05-05 15:32 43.44135 -43.02956 39348 ft 561 kts 90°
2026-05-05 15:32 43.44480 -42.92228 39341 ft 561 kts 90°
2026-05-05 15:33 43.44815 -42.81498 39346 ft 560 kts 90°
2026-05-05 15:33 43.45136 -42.70868 39343 ft 559 kts 90°
2026-05-05 15:34 43.45450 -42.60171 39343 ft 559 kts 90°
2026-05-05 15:34 43.45753 -42.49473 39347 ft 559 kts 90°
2026-05-05 15:35 43.46047 -42.38766 39340 ft 559 kts 90°
2026-05-05 15:35 43.46331 -42.28094 39333 ft 558 kts 90°
2026-05-05 15:36 43.46604 -42.17437 39337 ft 556 kts 90°
2026-05-05 15:36 43.46866 -42.06786 39335 ft 556 kts 90°
2026-05-05 15:37 43.47118 -41.96146 39333 ft 556 kts 90°
2026-05-05 15:37 43.47361 -41.85511 39333 ft 556 kts 90°
2026-05-05 15:38 43.47594 -41.74865 39294 ft 555 kts 90°
2026-05-05 15:38 43.47816 -41.64258 39327 ft 553 kts 90°
2026-05-05 15:39 43.48028 -41.53694 39328 ft 551 kts 90°
2026-05-05 15:39 43.48229 -41.43139 39325 ft 551 kts 90°
2026-05-05 15:40 43.48421 -41.32583 39325 ft 551 kts 90°
2026-05-05 15:40 43.48603 -41.22025 39325 ft 551 kts 91°
2026-05-05 15:41 43.48774 -41.11542 39325 ft 550 kts 90°
2026-05-05 15:41 43.48937 -41.01020 39324 ft 549 kts 90°
2026-05-05 15:42 43.49089 -40.90509 39320 ft 549 kts 91°
2026-05-05 15:42 43.49232 -40.79997 39317 ft 549 kts 91°
2026-05-05 15:43 43.49365 -40.69485 39321 ft 549 kts 91°
2026-05-05 15:43 43.49488 -40.58972 39305 ft 549 kts 91°
2026-05-05 15:44 43.49603 -40.48487 39319 ft 546 kts 91°
2026-05-05 15:44 43.49706 -40.38031 39318 ft 546 kts 91°
2026-05-05 15:45 43.49800 -40.27580 39312 ft 546 kts 91°
2026-05-05 15:45 43.49885 -40.17119 39310 ft 546 kts 91°
2026-05-05 15:46 43.49960 -40.06671 39310 ft 545 kts 91°
2026-05-05 15:46 43.49569 -39.96282 39312 ft 542 kts 99°
2026-05-05 15:47 43.48589 -39.85993 39308 ft 542 kts 101°
2026-05-05 15:47 43.47493 -39.75729 39304 ft 542 kts 101°
2026-05-05 15:48 43.46388 -39.65527 39304 ft 542 kts 101°
2026-05-05 15:48 43.45282 -39.55281 39289 ft 541 kts 101°
2026-05-05 15:49 43.44176 -39.45039 39298 ft 541 kts 101°
2026-05-05 15:49 43.43062 -39.34800 39297 ft 540 kts 101°
2026-05-05 15:50 43.41940 -39.24588 39294 ft 540 kts 101°
2026-05-05 15:50 43.40807 -39.14357 39291 ft 540 kts 101°
2026-05-05 15:51 43.39667 -39.04154 39291 ft 540 kts 101°
2026-05-05 15:51 43.38517 -38.93944 39296 ft 541 kts 101°
2026-05-05 15:52 43.37357 -38.83728 39281 ft 541 kts 101°
2026-05-05 15:52 43.36187 -38.73509 39284 ft 541 kts 101°
2026-05-05 15:53 43.35008 -38.63305 39278 ft 541 kts 101°
2026-05-05 15:53 43.33819 -38.53087 39290 ft 542 kts 101°
2026-05-05 15:54 43.32627 -38.42926 39281 ft 543 kts 101°
2026-05-05 15:54 43.31408 -38.32615 39283 ft 544 kts 101°
2026-05-05 15:55 43.30195 -38.22435 39276 ft 543 kts 101°
2026-05-05 15:55 43.28966 -38.12203 39285 ft 543 kts 101°
2026-05-05 15:56 43.27728 -38.01977 39294 ft 543 kts 101°
2026-05-05 15:56 43.26480 -37.91757 39295 ft 543 kts 101°
2026-05-05 15:57 43.25224 -37.81538 39294 ft 543 kts 101°
2026-05-05 15:57 43.23957 -37.71315 39298 ft 544 kts 101°
2026-05-05 15:58 43.22679 -37.61078 39303 ft 545 kts 101°
2026-05-05 15:58 43.21392 -37.50842 39301 ft 545 kts 101°
2026-05-05 15:59 43.20096 -37.40612 39305 ft 545 kts 101°
2026-05-05 15:59 43.18789 -37.30381 39309 ft 546 kts 100°
2026-05-05 16:00 43.17468 -37.20107 39316 ft 548 kts 100°
2026-05-05 16:00 43.16136 -37.09829 39318 ft 549 kts 100°
2026-05-05 16:01 43.14801 -36.99598 39324 ft 549 kts 100°
2026-05-05 16:01 43.13670 -36.90992 39316 ft 548 kts 101°
2026-05-05 16:02 43.12088 -36.79035 39335 ft 549 kts 100°
2026-05-05 16:02 43.10713 -36.68730 39335 ft 551 kts 100°
2026-05-05 16:03 43.09560 -36.60142 39337 ft 551 kts 101°
2026-05-05 16:03 43.08158 -36.49762 39336 ft 551 kts 101°
2026-05-05 16:04 43.06765 -36.39527 39341 ft 551 kts 100°
2026-05-05 16:04 43.05362 -36.29250 39347 ft 550 kts 100°
2026-05-05 16:05 43.03944 -36.18978 39356 ft 549 kts 100°
2026-05-05 16:05 43.02517 -36.08734 39356 ft 548 kts 100°
2026-05-05 16:06 43.01085 -35.98519 39351 ft 547 kts 99°
2026-05-05 16:06 42.99648 -35.88323 39361 ft 545 kts 99°
2026-05-05 16:07 42.98216 -35.78223 39364 ft 544 kts 100°
2026-05-05 16:07 42.96767 -35.68074 39369 ft 544 kts 100°
2026-05-05 16:08 42.95315 -35.57969 39368 ft 541 kts 100°
2026-05-05 16:08 42.93858 -35.47902 39372 ft 540 kts 100°
2026-05-05 16:09 42.92395 -35.37854 39373 ft 540 kts 100°
2026-05-05 16:09 42.90921 -35.27797 39379 ft 541 kts 100°
2026-05-05 16:10 42.89438 -35.17745 39378 ft 541 kts 100°
2026-05-05 16:10 42.87951 -35.07727 39381 ft 536 kts 100°
2026-05-05 16:11 42.86469 -34.97809 39386 ft 532 kts 100°
2026-05-05 16:12 42.83503 -34.78138 39396 ft 532 kts 101°
2026-05-05 16:13 42.79756 -34.53629 39394 ft 525 kts 101°
2026-05-05 16:13 42.78253 -34.43898 39397 ft 525 kts 101°
2026-05-05 16:14 42.75218 -34.24429 39399 ft 526 kts 101°
2026-05-05 16:15 42.72148 -34.04965 39413 ft 526 kts 101°
2026-05-05 16:16 42.69046 -33.85526 39403 ft 526 kts 101°
2026-05-05 16:17 42.66711 -33.71041 39412 ft 525 kts 101°
2026-05-05 16:18 42.64350 -33.56519 39414 ft 525 kts 101°
2026-05-05 16:19 42.61978 -33.42056 39413 ft 520 kts 100°
2026-05-05 16:19 42.59602 -33.27686 39427 ft 520 kts 100°
2026-05-05 16:20 42.56410 -33.08561 39426 ft 520 kts 100°
2026-05-05 16:22 42.52372 -32.84666 39436 ft 520 kts 100°
2026-05-05 16:23 42.49104 -32.65566 39433 ft 520 kts 100°
2026-05-05 16:23 42.46633 -32.51255 39434 ft 520 kts 100°
2026-05-05 16:24 42.44984 -32.41770 39447 ft 520 kts 99°
2026-05-05 16:25 42.42482 -32.27476 39436 ft 517 kts 99°
2026-05-05 16:25 42.39986 -32.13321 39441 ft 517 kts 99°
2026-05-05 16:26 42.36631 -31.94474 39441 ft 515 kts 99°
2026-05-05 16:27 42.34944 -31.85061 39437 ft 514 kts 99°
2026-05-05 16:27 42.33252 -31.75674 39443 ft 514 kts 99°
2026-05-05 16:28 42.31550 -31.66274 39442 ft 516 kts 100°
2026-05-05 16:28 42.29834 -31.56844 39443 ft 517 kts 100°
2026-05-05 16:29 42.28107 -31.47411 39443 ft 517 kts 100°
2026-05-05 16:29 42.26373 -31.37985 39457 ft 517 kts 99°
2026-05-05 16:30 42.24641 -31.28617 39447 ft 517 kts 100°
2026-05-05 16:30 42.22892 -31.19199 39447 ft 517 kts 100°
2026-05-05 16:31 42.21135 -31.09784 39446 ft 517 kts 100°
2026-05-05 16:31 42.19372 -31.00387 39447 ft 517 kts 100°
2026-05-05 16:32 42.17599 -30.90985 39442 ft 517 kts 100°
2026-05-05 16:32 42.15822 -30.81607 39448 ft 515 kts 99°
2026-05-05 16:33 42.14045 -30.72279 39443 ft 513 kts 99°
2026-05-05 16:33 42.12265 -30.62967 39432 ft 513 kts 100°
2026-05-05 16:34 42.10477 -30.53660 39444 ft 513 kts 100°
2026-05-05 16:34 42.08681 -30.44362 39440 ft 512 kts 99°
2026-05-05 16:35 42.06882 -30.35093 39449 ft 511 kts 99°
2026-05-05 16:35 42.05077 -30.25836 39440 ft 511 kts 99°
2026-05-05 16:36 42.03266 -30.16586 39441 ft 511 kts 99°
2026-05-05 16:36 42.01445 -30.07332 39441 ft 511 kts 99°
2026-05-05 16:37 41.99659 -29.98088 39440 ft 509 kts 97°
2026-05-05 16:37 41.98191 -29.88802 39438 ft 508 kts 95°
2026-05-05 16:38 41.96826 -29.79490 39445 ft 508 kts 95°
2026-05-05 16:38 41.95433 -29.70183 39437 ft 508 kts 96°
2026-05-05 16:39 41.94011 -29.60934 39438 ft 508 kts 96°
2026-05-05 16:39 41.92563 -29.51639 39434 ft 508 kts 96°
2026-05-05 16:40 41.91112 -29.42373 39438 ft 508 kts 96°
2026-05-05 16:40 41.89650 -29.33087 39431 ft 507 kts 96°
2026-05-05 16:41 41.88186 -29.23839 39432 ft 506 kts 96°
2026-05-05 16:41 41.86718 -29.14617 39430 ft 505 kts 96°
2026-05-05 16:42 41.85247 -29.05423 39430 ft 503 kts 96°
2026-05-05 16:42 41.83772 -28.96244 39430 ft 503 kts 96°
2026-05-05 16:43 41.82289 -28.87069 39427 ft 504 kts 96°
2026-05-05 16:43 41.80798 -28.77894 39433 ft 504 kts 96°
2026-05-05 16:44 41.79300 -28.68733 39427 ft 502 kts 96°
2026-05-05 16:44 41.77798 -28.59601 39427 ft 502 kts 96°
2026-05-05 16:45 41.76292 -28.50475 39425 ft 502 kts 96°
2026-05-05 16:45 41.74777 -28.41351 39435 ft 502 kts 96°
2026-05-05 16:46 41.73254 -28.32226 39427 ft 502 kts 96°
2026-05-05 16:46 41.71721 -28.23085 39425 ft 503 kts 96°
2026-05-05 16:47 41.70442 -28.15506 39422 ft 503 kts 96°
2026-05-05 16:47 41.68644 -28.04896 39422 ft 503 kts 96°
2026-05-05 16:48 41.67090 -27.95776 39422 ft 503 kts 96°
2026-05-05 16:48 41.65528 -27.86656 39423 ft 503 kts 96°
2026-05-05 16:49 41.64215 -27.79019 39422 ft 504 kts 96°
2026-05-05 16:49 41.62638 -27.69897 39422 ft 504 kts 96°
2026-05-05 16:50 41.61053 -27.60779 39422 ft 503 kts 96°
2026-05-05 16:50 41.59462 -27.51669 39422 ft 503 kts 96°
2026-05-05 16:51 41.57873 -27.42612 39414 ft 504 kts 96°
2026-05-05 16:51 41.56267 -27.33505 39417 ft 504 kts 96°
2026-05-05 16:52 41.54653 -27.24403 39414 ft 504 kts 96°
2026-05-05 16:52 41.53034 -27.15315 39433 ft 504 kts 96°
2026-05-05 16:53 41.51402 -27.06198 39417 ft 505 kts 96°
2026-05-05 16:53 41.49761 -26.97076 39403 ft 506 kts 96°
2026-05-05 16:54 41.48110 -26.87950 39417 ft 506 kts 96°
2026-05-05 16:54 41.46451 -26.78823 39409 ft 506 kts 96°
2026-05-05 16:55 41.44786 -26.69697 39418 ft 507 kts 96°
2026-05-05 16:55 41.43122 -26.60630 39405 ft 507 kts 96°
2026-05-05 16:56 41.41440 -26.51507 39409 ft 507 kts 96°
2026-05-05 16:56 41.39753 -26.42403 39401 ft 506 kts 96°
2026-05-05 16:57 41.38060 -26.33307 39401 ft 506 kts 96°
2026-05-05 16:57 41.36361 -26.24214 39415 ft 506 kts 96°
2026-05-05 16:58 41.34654 -26.15126 39400 ft 506 kts 96°
2026-05-05 16:58 41.32940 -26.06047 39398 ft 505 kts 96°
2026-05-05 16:59 41.31220 -25.96983 39398 ft 505 kts 96°
2026-05-05 16:59 41.29498 -25.87942 39399 ft 505 kts 96°
2026-05-05 17:00 41.27769 -25.78901 39398 ft 505 kts 96°
2026-05-05 17:00 41.26029 -25.69850 39398 ft 505 kts 96°
2026-05-05 17:01 41.24284 -25.60817 39403 ft 504 kts 96°
2026-05-05 17:01 41.22535 -25.51804 39384 ft 504 kts 96°
2026-05-05 17:02 41.20780 -25.42798 39392 ft 504 kts 96°
2026-05-05 17:02 41.19018 -25.33794 39392 ft 504 kts 96°
2026-05-05 17:03 41.17250 -25.24804 39390 ft 504 kts 96°
2026-05-05 17:03 41.15481 -25.15852 39388 ft 503 kts 96°
2026-05-05 17:04 41.13700 -25.06882 39383 ft 502 kts 96°
2026-05-05 17:04 41.11911 -24.97901 39385 ft 502 kts 96°
2026-05-05 17:05 41.10120 -24.88954 39383 ft 503 kts 96°
2026-05-05 17:05 41.08319 -24.79998 39385 ft 503 kts 96°
2026-05-05 17:06 41.06512 -24.71049 39381 ft 502 kts 96°
2026-05-05 17:06 41.04699 -24.62120 39381 ft 501 kts 96°
2026-05-05 17:07 41.02882 -24.53199 39382 ft 502 kts 96°
2026-05-05 17:07 41.01057 -24.44280 39379 ft 502 kts 96°
2026-05-05 17:08 40.99225 -24.35365 39387 ft 502 kts 96°
2026-05-05 17:08 40.97397 -24.26506 39375 ft 502 kts 96°
2026-05-05 17:09 40.95551 -24.17609 39371 ft 501 kts 96°
2026-05-05 17:09 40.93702 -24.08729 39370 ft 501 kts 96°
2026-05-05 17:10 40.91847 -23.99851 39374 ft 501 kts 97°
2026-05-05 17:10 40.89984 -23.90973 39373 ft 501 kts 97°
2026-05-05 17:11 40.88112 -23.82097 39365 ft 501 kts 97°
2026-05-05 17:11 40.86236 -23.73241 39382 ft 500 kts 97°
2026-05-05 17:12 40.84356 -23.64401 39366 ft 500 kts 98°
2026-05-05 17:12 40.82471 -23.55565 39366 ft 500 kts 98°
2026-05-05 17:13 40.80577 -23.46731 39365 ft 500 kts 98°
2026-05-05 17:13 40.78676 -23.37900 39366 ft 500 kts 99°
2026-05-05 17:14 40.76784 -23.29148 39361 ft 499 kts 99°
2026-05-05 17:14 40.74876 -23.20359 39360 ft 498 kts 99°
2026-05-05 17:15 40.72960 -23.11568 39361 ft 498 kts 99°
2026-05-05 17:15 40.71040 -23.02788 39356 ft 498 kts 100°
2026-05-05 17:16 40.69113 -22.94018 39361 ft 498 kts 100°
2026-05-05 17:16 40.67178 -22.85247 39357 ft 498 kts 100°
2026-05-05 17:17 40.65254 -22.76558 39382 ft 497 kts 100°
2026-05-05 17:17 40.63313 -22.67825 39348 ft 496 kts 100°
2026-05-05 17:18 40.61367 -22.59106 39348 ft 496 kts 100°
2026-05-05 17:18 40.59416 -22.50398 39342 ft 497 kts 100°
2026-05-05 17:19 40.57456 -22.41683 39351 ft 497 kts 101°
2026-05-05 17:19 40.55488 -22.32973 39344 ft 496 kts 101°
2026-05-05 17:20 40.53518 -22.24282 39341 ft 496 kts 101°
2026-05-05 17:20 40.51539 -22.15583 39341 ft 496 kts 101°
2026-05-05 17:21 40.49553 -22.06889 39341 ft 496 kts 101°
2026-05-05 17:22 40.46573 -21.93911 39333 ft 496 kts 101°
2026-05-05 17:22 40.44574 -21.85245 39338 ft 496 kts 101°
2026-05-05 17:23 40.42569 -21.76586 39341 ft 496 kts 101°
2026-05-05 17:23 40.40555 -21.67925 39335 ft 496 kts 101°
2026-05-05 17:24 40.38535 -21.59268 39333 ft 496 kts 101°
2026-05-05 17:24 40.36508 -21.50616 39330 ft 496 kts 101°
2026-05-05 17:25 40.34490 -21.42033 39333 ft 496 kts 101°
2026-05-05 17:25 40.32454 -21.33401 39327 ft 496 kts 101°
2026-05-05 17:26 40.30412 -21.24778 39325 ft 496 kts 101°
2026-05-05 17:26 40.28363 -21.16159 39325 ft 495 kts 101°
2026-05-05 17:27 40.26307 -21.07547 39328 ft 495 kts 101°
2026-05-05 17:27 40.24249 -20.98957 39313 ft 495 kts 101°
2026-05-05 17:28 40.22181 -20.90358 39317 ft 495 kts 101°
2026-05-05 17:28 40.20113 -20.81789 39317 ft 494 kts 101°
2026-05-05 17:29 40.18037 -20.73218 39319 ft 494 kts 101°
2026-05-05 17:29 40.15956 -20.64660 39318 ft 494 kts 101°
2026-05-05 17:30 40.13870 -20.56109 39311 ft 494 kts 101°
2026-05-05 17:30 40.11777 -20.47560 39309 ft 494 kts 101°
2026-05-05 17:31 40.09678 -20.39023 39307 ft 493 kts 102°
2026-05-05 17:31 40.07577 -20.30504 39306 ft 493 kts 102°
2026-05-05 17:32 40.05470 -20.21993 39302 ft 493 kts 102°
2026-05-05 17:32 40.03357 -20.13487 39329 ft 493 kts 102°
2026-05-05 17:33 40.01233 -20.04967 39301 ft 493 kts 102°
2026-05-05 17:33 39.99381 -19.96410 39294 ft 488 kts 98°
2026-05-05 17:34 39.97825 -19.87862 39298 ft 487 kts 97°
2026-05-05 17:34 39.96307 -19.79254 39318 ft 487 kts 97°
2026-05-05 17:35 39.95041 -19.72086 39297 ft 488 kts 97°
2026-05-05 17:35 39.93505 -19.63474 39292 ft 488 kts 98°
2026-05-05 17:36 39.91956 -19.54854 39289 ft 488 kts 98°
2026-05-05 17:36 39.90401 -19.46247 39286 ft 488 kts 98°
2026-05-05 17:37 39.88838 -19.37631 39287 ft 488 kts 98°
2026-05-05 17:37 39.87272 -19.29039 39287 ft 488 kts 98°
2026-05-05 17:38 39.85698 -19.20440 39286 ft 488 kts 98°
2026-05-05 17:38 39.84127 -19.11893 39302 ft 488 kts 99°
2026-05-05 17:39 39.82531 -19.03249 39282 ft 489 kts 99°
2026-05-05 17:39 39.80935 -18.94644 39281 ft 489 kts 99°
2026-05-05 17:40 39.79332 -18.86042 39279 ft 489 kts 99°
2026-05-05 17:40 39.77733 -18.77501 39278 ft 489 kts 99°
2026-05-05 17:41 39.76118 -18.68908 39273 ft 489 kts 99°
2026-05-05 17:41 39.74498 -18.60330 39273 ft 489 kts 100°
2026-05-05 17:42 39.72870 -18.51745 39273 ft 489 kts 100°
2026-05-05 17:42 39.71236 -18.43164 39283 ft 489 kts 100°
2026-05-05 17:43 39.69594 -18.34578 39269 ft 490 kts 100°
2026-05-05 17:43 39.67943 -18.25981 39267 ft 491 kts 100°
2026-05-05 17:44 39.66284 -18.17385 39269 ft 491 kts 101°
2026-05-05 17:44 39.64619 -18.08795 39282 ft 491 kts 101°
2026-05-05 17:45 39.62948 -18.00207 39263 ft 491 kts 101°
2026-05-05 17:45 39.61267 -17.91609 39262 ft 491 kts 101°
2026-05-05 17:46 39.59582 -17.83024 39257 ft 491 kts 101°
2026-05-05 17:46 39.57890 -17.74441 39263 ft 491 kts 101°
2026-05-05 17:47 39.56192 -17.65858 39254 ft 492 kts 102°
2026-05-05 17:47 39.54495 -17.57322 39249 ft 492 kts 102°
2026-05-05 17:48 39.52781 -17.48736 39251 ft 492 kts 102°
2026-05-05 17:48 39.51060 -17.40151 39252 ft 492 kts 102°
2026-05-05 17:49 39.49334 -17.31576 39251 ft 493 kts 103°
2026-05-05 17:49 39.47596 -17.22974 39246 ft 493 kts 103°
2026-05-05 17:50 39.45850 -17.14373 39248 ft 493 kts 103°
2026-05-05 17:50 39.44100 -17.05788 39246 ft 493 kts 103°
2026-05-05 17:51 39.42344 -16.97205 39235 ft 494 kts 103°
2026-05-05 17:51 39.40580 -16.88619 39229 ft 494 kts 103°
2026-05-05 17:52 39.38809 -16.80035 39246 ft 494 kts 103°
2026-05-05 17:52 39.37031 -16.71451 39241 ft 494 kts 103°
2026-05-05 17:53 39.35247 -16.62874 39234 ft 494 kts 104°
2026-05-05 17:53 39.33458 -16.54310 39235 ft 494 kts 104°
2026-05-05 17:54 39.31661 -16.45739 39238 ft 494 kts 104°
2026-05-05 17:54 39.29868 -16.37220 39226 ft 494 kts 104°
2026-05-05 17:55 39.28060 -16.28665 39232 ft 494 kts 104°
2026-05-05 17:55 39.26244 -16.20106 39223 ft 494 kts 104°
2026-05-05 17:56 39.24422 -16.11554 39226 ft 494 kts 105°
2026-05-05 17:56 39.22594 -16.03006 39225 ft 494 kts 105°
2026-05-05 17:57 39.20760 -15.94462 39223 ft 494 kts 105°
2026-05-05 17:57 39.18919 -15.85923 39221 ft 494 kts 105°
2026-05-05 17:58 39.17072 -15.77386 39211 ft 494 kts 105°
2026-05-05 17:58 39.15229 -15.68900 39219 ft 495 kts 105°
2026-05-05 17:59 39.13358 -15.60319 39220 ft 495 kts 105°
2026-05-05 17:59 39.11489 -15.51781 39217 ft 495 kts 105°
2026-05-05 18:00 39.09623 -15.43291 39211 ft 495 kts 105°
2026-05-05 18:00 39.07740 -15.34756 39210 ft 496 kts 106°
2026-05-05 18:01 39.05853 -15.26233 39210 ft 496 kts 106°
2026-05-05 18:01 39.03957 -15.17705 39205 ft 495 kts 105°
2026-05-05 18:02 39.02074 -15.09182 39207 ft 496 kts 106°
2026-05-05 18:02 39.00155 -15.00649 39208 ft 496 kts 107°
2026-05-05 18:03 38.98105 -14.92174 39211 ft 496 kts 108°
2026-05-05 18:03 38.95968 -14.83720 39203 ft 497 kts 108°
2026-05-05 18:04 38.93831 -14.75276 39203 ft 497 kts 108°
2026-05-05 18:04 38.91700 -14.66827 39200 ft 497 kts 108°
2026-05-05 18:05 38.89571 -14.58381 39196 ft 497 kts 108°
2026-05-05 18:05 38.87435 -14.49936 39193 ft 498 kts 109°
2026-05-05 18:06 38.85289 -14.41480 39194 ft 498 kts 110°
2026-05-05 18:06 38.83151 -14.33025 39191 ft 499 kts 109°
2026-05-05 18:07 38.80766 -14.24740 39196 ft 498 kts 112°
2026-05-05 18:07 38.78218 -14.16479 39188 ft 498 kts 113°
2026-05-05 18:08 38.75688 -14.08208 39189 ft 499 kts 112°
2026-05-05 18:08 38.73180 -13.99924 39182 ft 499 kts 112°
2026-05-05 18:09 38.70679 -13.91638 39181 ft 499 kts 112°
2026-05-05 18:09 38.68172 -13.83351 39190 ft 499 kts 112°
2026-05-05 18:10 38.65657 -13.75064 39179 ft 500 kts 112°
2026-05-05 18:10 38.63133 -13.66779 39182 ft 500 kts 112°
2026-05-05 18:11 38.60601 -13.58490 39177 ft 500 kts 113°
2026-05-05 18:11 38.58065 -13.50216 39178 ft 500 kts 113°
2026-05-05 18:12 38.55525 -13.41954 39172 ft 501 kts 113°
2026-05-05 18:12 38.52969 -13.33662 39175 ft 501 kts 113°
2026-05-05 18:13 38.50440 -13.25439 39174 ft 500 kts 114°
2026-05-05 18:13 38.47890 -13.17104 39169 ft 501 kts 113°
2026-05-05 18:14 38.45310 -13.08839 39169 ft 502 kts 114°
2026-05-05 18:14 38.42705 -13.00580 39166 ft 502 kts 114°
2026-05-05 18:15 38.40124 -12.92368 39157 ft 502 kts 114°
2026-05-05 18:15 38.37528 -12.84102 39171 ft 502 kts 114°
2026-05-05 18:16 38.34912 -12.75785 39167 ft 502 kts 114°
2026-05-05 18:16 38.32362 -12.67562 39169 ft 503 kts 113°
2026-05-05 18:17 38.29814 -12.59270 39151 ft 503 kts 113°
2026-05-05 18:17 38.27260 -12.50993 39153 ft 503 kts 113°
2026-05-05 18:18 38.24696 -12.42715 39154 ft 503 kts 113°
2026-05-05 18:18 38.22125 -12.34441 39156 ft 503 kts 114°
2026-05-05 18:19 38.19541 -12.26149 39149 ft 504 kts 114°
2026-05-05 18:19 38.16952 -12.17866 39144 ft 504 kts 114°
2026-05-05 18:20 38.14795 -12.10981 39147 ft 504 kts 114°
2026-05-05 18:20 38.12195 -12.02710 39143 ft 504 kts 114°
2026-05-05 18:21 38.09589 -11.94439 39145 ft 505 kts 114°
2026-05-05 18:21 38.06974 -11.86167 39139 ft 505 kts 114°
2026-05-05 18:22 38.04352 -11.77899 39139 ft 505 kts 114°
2026-05-05 18:22 38.01725 -11.69634 39133 ft 505 kts 114°
2026-05-05 18:23 37.99091 -11.61375 39139 ft 505 kts 114°
2026-05-05 18:23 37.96451 -11.53122 39137 ft 505 kts 114°
2026-05-05 18:24 37.93805 -11.44873 39134 ft 505 kts 114°
2026-05-05 18:24 37.91155 -11.36632 39134 ft 505 kts 114°
2026-05-05 18:25 37.88498 -11.28398 39129 ft 505 kts 115°
2026-05-05 18:25 37.85835 -11.20166 39129 ft 506 kts 115°
2026-05-05 18:26 37.83164 -11.11935 39130 ft 506 kts 115°
2026-05-05 18:26 37.80487 -11.03709 39131 ft 506 kts 115°
2026-05-05 18:27 37.77805 -10.95488 39124 ft 506 kts 115°
2026-05-05 18:27 37.75115 -10.87271 39125 ft 506 kts 115°
2026-05-05 18:28 37.71066 -10.74942 39123 ft 506 kts 115°
2026-05-05 18:28 37.68357 -10.66723 39112 ft 506 kts 115°
2026-05-05 18:29 37.65645 -10.58518 39116 ft 506 kts 115°
2026-05-05 18:29 37.62945 -10.50373 39113 ft 506 kts 115°
2026-05-05 18:30 37.60217 -10.42163 39113 ft 507 kts 115°
2026-05-05 18:30 37.57482 -10.33959 39113 ft 507 kts 115°
2026-05-05 18:31 37.54744 -10.25769 39105 ft 507 kts 115°
2026-05-05 18:31 37.52000 -10.17578 39104 ft 507 kts 116°
2026-05-05 18:32 37.49252 -10.09400 39097 ft 507 kts 116°
2026-05-05 18:32 37.46501 -10.01234 39090 ft 507 kts 116°
2026-05-05 18:33 37.45124 -9.97159 38781 ft 505 kts 116°
2026-05-05 18:33 37.43749 -9.93096 38198 ft 503 kts 116°
2026-05-05 18:33 37.42380 -9.89055 37577 ft 501 kts 116°
2026-05-05 18:33 37.41029 -9.85074 36922 ft 501 kts 116°
2026-05-05 18:34 37.39660 -9.81046 36231 ft 501 kts 116°
2026-05-05 18:34 37.38290 -9.77018 35560 ft 501 kts 116°
2026-05-05 18:34 37.36916 -9.72986 34881 ft 501 kts 116°
2026-05-05 18:34 37.35539 -9.68947 34197 ft 502 kts 116°
2026-05-05 18:35 37.34162 -9.64915 33399 ft 502 kts 116°
2026-05-05 18:35 37.32781 -9.60877 32538 ft 504 kts 116°
2026-05-05 18:35 37.31393 -9.56827 31698 ft 505 kts 116°
2026-05-05 18:35 37.30001 -9.52767 30849 ft 505 kts 116°
2026-05-05 18:36 37.28611 -9.48719 30040 ft 506 kts 116°
2026-05-05 18:36 37.27220 -9.44669 29223 ft 503 kts 116°
2026-05-05 18:36 37.25837 -9.40653 28579 ft 499 kts 116°
2026-05-05 18:36 37.24465 -9.36665 28019 ft 496 kts 116°
2026-05-05 18:37 37.23098 -9.32694 27463 ft 493 kts 115°
2026-05-05 18:37 37.21840 -9.28718 26933 ft 490 kts 110°
2026-05-05 18:37 37.20843 -9.24652 26396 ft 485 kts 108°
2026-05-05 18:37 37.19922 -9.20600 25871 ft 481 kts 107°
2026-05-05 18:38 37.19050 -9.16561 25357 ft 476 kts 105°
2026-05-05 18:38 37.18210 -9.12566 24864 ft 471 kts 105°
2026-05-05 18:38 37.17382 -9.08608 24362 ft 467 kts 105°
2026-05-05 18:38 37.16561 -9.04697 23877 ft 463 kts 105°
2026-05-05 18:39 37.15740 -9.00808 23351 ft 459 kts 105°
2026-05-05 18:39 37.14924 -8.96960 22781 ft 454 kts 105°
2026-05-05 18:39 37.14113 -8.93157 22219 ft 450 kts 105°
2026-05-05 18:39 37.13303 -8.89374 21529 ft 447 kts 105°
2026-05-05 18:40 37.12501 -8.85636 20945 ft 441 kts 105°
2026-05-05 18:40 37.11708 -8.81946 20359 ft 435 kts 105°
2026-05-05 18:40 37.10924 -8.78309 19729 ft 430 kts 105°
2026-05-05 18:40 37.10148 -8.74708 19106 ft 426 kts 105°
2026-05-05 18:41 37.09380 -8.71153 18510 ft 422 kts 105°
2026-05-05 18:41 37.08615 -8.67616 17819 ft 418 kts 105°
2026-05-05 18:41 37.07858 -8.64120 17109 ft 414 kts 105°
2026-05-05 18:41 37.07105 -8.60651 16413 ft 411 kts 105°
2026-05-05 18:42 37.06357 -8.57210 15803 ft 405 kts 104°
2026-05-05 18:42 37.05623 -8.53827 15167 ft 400 kts 105°
2026-05-05 18:42 37.04894 -8.50478 14498 ft 398 kts 105°
2026-05-05 18:42 37.04176 -8.47194 13874 ft 394 kts 104°
2026-05-05 18:43 37.03457 -8.43912 13284 ft 387 kts 104°
2026-05-05 18:43 37.02751 -8.40693 12758 ft 379 kts 104°
2026-05-05 18:43 37.02059 -8.37539 12231 ft 373 kts 104°
2026-05-05 18:43 37.01379 -8.34441 11692 ft 366 kts 104°
2026-05-05 18:44 37.00709 -8.31394 11183 ft 360 kts 105°
2026-05-05 18:44 37.00049 -8.28391 10661 ft 355 kts 105°
2026-05-05 18:44 36.99397 -8.25432 10163 ft 350 kts 105°
2026-05-05 18:44 36.98765 -8.22567 9775 ft 332 kts 105°
2026-05-05 18:45 36.98170 -8.19880 9467 ft 311 kts 105°
2026-05-05 18:45 36.97600 -8.17304 9025 ft 305 kts 104°
2026-05-05 18:45 36.97040 -8.14775 8674 ft 300 kts 104°
2026-05-05 18:45 36.96487 -8.12284 8319 ft 295 kts 104°
2026-05-05 18:46 36.95941 -8.09821 7966 ft 291 kts 104°
2026-05-05 18:46 36.95404 -8.07402 7576 ft 288 kts 104°
2026-05-05 18:46 36.94867 -8.04986 7167 ft 287 kts 103°
2026-05-05 18:46 36.94333 -8.02579 7030 ft 287 kts 104°
2026-05-05 18:47 36.93804 -8.00183 6976 ft 286 kts 104°
2026-05-05 18:47 36.93270 -7.97784 6630 ft 284 kts 103°
2026-05-05 18:47 36.92742 -7.95423 6384 ft 281 kts 103°
2026-05-05 18:47 36.92217 -7.93073 6119 ft 280 kts 103°
2026-05-05 18:48 36.91699 -7.90766 5869 ft 278 kts 103°
2026-05-05 18:48 36.91179 -7.88451 5607 ft 275 kts 104°
2026-05-05 18:48 36.90665 -7.86164 5348 ft 271 kts 103°
2026-05-05 18:48 36.90163 -7.83936 5080 ft 261 kts 103°
2026-05-05 18:49 36.89675 -7.81770 4900 ft 257 kts 102°
2026-05-05 18:49 36.89193 -7.79626 4775 ft 256 kts 102°
2026-05-05 18:49 36.88713 -7.77485 4616 ft 256 kts 103°
2026-05-05 18:49 36.88233 -7.75350 4363 ft 255 kts 101°
2026-05-05 18:50 36.87926 -7.73183 4097 ft 251 kts 88°
2026-05-05 18:50 36.88131 -7.71075 3988 ft 239 kts 68°
2026-05-05 18:50 36.88946 -7.69387 3977 ft 220 kts 42°
2026-05-05 18:50 36.90259 -7.68492 3989 ft 216 kts 14°
2026-05-05 18:51 36.91735 -7.68165 3988 ft 215 kts
2026-05-05 18:51 36.93230 -7.67971 3987 ft 216 kts
2026-05-05 18:51 36.94742 -7.67872 3990 ft 219 kts 357°
2026-05-05 18:51 36.96192 -7.68394 3980 ft 221 kts 328°
2026-05-05 18:52 36.97239 -7.69815 3981 ft 221 kts 307°
2026-05-05 18:52 36.97870 -7.71501 3963 ft 209 kts 290°
2026-05-05 18:52 36.98147 -7.73251 3788 ft 203 kts 282°
2026-05-05 18:52 36.98355 -7.74984 3487 ft 200 kts 285°
2026-05-05 18:53 36.98606 -7.76687 3183 ft 196 kts 286°
2026-05-05 18:53 36.98843 -7.78329 2904 ft 188 kts 285°
2026-05-05 18:53 36.99064 -7.79905 2646 ft 179 kts 286°
2026-05-05 18:53 36.99276 -7.81388 2417 ft 172 kts 285°
2026-05-05 18:54 36.99478 -7.82807 2184 ft 159 kts 286°
2026-05-05 18:54 36.99668 -7.84133 1992 ft 150 kts 285°
2026-05-05 18:54 36.99845 -7.85378 1794 ft 141 kts 285°
2026-05-05 18:54 37.00008 -7.86532 1610 ft 128 kts 285°
2026-05-05 18:55 37.00158 -7.87577 1439 ft 116 kts 284°
2026-05-05 18:55 37.00298 -7.88559 1301 ft 114 kts 288°
2026-05-05 18:55 37.00440 -7.89540 1139 ft 115 kts 287°
2026-05-05 18:55 37.00576 -7.90528 953 ft 116 kts 284°
2026-05-05 18:56 37.00695 -7.91523 695 ft 115 kts 286°
2026-05-05 18:56 37.00852 -7.92494 580 ft 115 kts 282°
2026-05-05 18:56 37.00987 -7.93492 400 ft 117 kts 285°
2026-05-05 18:56 37.01136 -7.94482 261 ft 114 kts 284°
2026-05-05 18:57 37.01276 -7.95441 121 ft 110 kts 284°
2026-05-05 18:57 37.01410 -7.96374 30 ft 105 kts 284°
2026-05-05 18:57 37.01515 -7.97080 28 ft 55 kts 281°
2026-05-05 18:57 37.01561 -7.97402 23 ft 33 kts 280°
2026-05-05 18:58 37.01599 -7.97676 23 ft 31 kts 280°
2026-05-05 18:58 37.01636 -7.97932 28 ft 29 kts 280°
2026-05-05 18:58 37.01687 -7.98086 27 ft 13 kts 310°
2026-05-05 18:58 37.01752 -7.98185 31 ft 16 kts 309°
2026-05-05 18:59 37.01812 -7.98227 28 ft 16 kts 354°
2026-05-05 18:59 37.01852 -7.98189 28 ft 4 kts 88°
2026-05-05 18:59 37.01846 -7.98133 24 ft 8 kts 100°
2026-05-05 18:59 37.01835 -7.98050 26 ft 11 kts 100°
2026-05-05 19:00 37.01819 -7.97938 26 ft 15 kts 100°
2026-05-05 19:00 37.01800 -7.97801 29 ft 18 kts 100°
2026-05-05 19:00 37.01776 -7.97637 25 ft 21 kts 100°
2026-05-05 19:00 37.01749 -7.97447 25 ft 22 kts 100°
2026-05-05 19:01 37.01738 -7.97368 26 ft 14 kts 100°
2026-05-05 19:01 37.01712 -7.97189 27 ft 18 kts 101°
2026-05-05 19:01 37.01689 -7.97025 27 ft 21 kts 99°
2026-05-05 19:01 37.01671 -7.96901 26 ft 22 kts 100°
2026-05-05 19:02 37.01644 -7.96709 25 ft 12 kts 101°
2026-05-05 19:02 37.01630 -7.96610 27 ft 13 kts 98°
2026-05-05 19:02 37.01668 -7.96546 25 ft 10 kts 20°
2026-05-05 19:02 37.01718 -7.96526 26 ft 7 kts 13°
2026-05-05 19:03 37.01721 -7.96526 27 ft 0 kts 10°
2026-05-05 19:03 37.01734 -7.96523 26 ft 4 kts 10°
2026-05-05 19:03 37.01763 -7.96523 27 ft 4 kts 345°
2026-05-05 19:03 37.01783 -7.96542 29 ft 3 kts 309°
2026-05-05 19:04 37.01790 -7.96572 26 ft 5 kts 285°
2026-05-05 19:04 37.01799 -7.96619 27 ft 5 kts 283°
2026-05-05 19:04 37.01809 -7.96630 28 ft 2 kts 324°
2026-05-05 19:04 37.01829 -7.96634 27 ft 4 kts 358°
2026-05-05 19:05 37.01862 -7.96628 26 ft 5 kts
2026-05-05 19:05 37.01881 -7.96624 28 ft 0 kts 10°